Regional Weather Roundup
Issued by NWS

Home | Current Version | Previous Version | Text Only | Print | Product List | Glossary Off
Versions: 1 2 3 4 5 6 7 8 9 10 11 12 13 14 15 16 17 18 19 20 21 22 23 24 25 26 27 28 29 30 31 32 33 34 35 36 37 38 39 40 41 42 43 44 45 46 47 48 49 50

000
ASUS45 KCYS 301710
RWRWY

WYOMING REGIONAL WEATHER ROUNDUP
NATIONAL WEATHER SERVICE CHEYENNE WY
1100 AM MDT THU JUL 30 2015

NOTE:  "FAIR" INDICATES FEW OR NO CLOUDS BELOW 12,000 FEET
WITH NO SIGNIFICANT WEATHER AND/OR OBSTRUCTIONS TO VISIBILITY.

WYZ001-301800-
YELLOWSTONE NATIONAL PARK

CITY           SKY/WX    TMP DP  RH WIND       PRES   REMARKS
LK YELLOWSTONE   N/A     61  42  49 E6        30.57S
W YELLOWSTONE  NOT AVBL

$$
WYZ002>013-054>058-071-098>099-301800-
NORTHERN WYOMING

CITY           SKY/WX    TMP DP  RH WIND       PRES   REMARKS
JACKSON        FAIR      63  39  42 CALM      30.48F
CODY           FAIR      75  36  23 CALM      30.36F
GREYBULL       FAIR      76  35  22 VRB3      30.31F
WORLAND        FAIR      77  36  22 VRB3      30.33F
SHERIDAN       FAIR      82  37  20 N6        30.30F
BUFFALO        FAIR      79  34  19 VRB3      30.37S
GILLETTE       NOT AVBL
HULETT         FAIR      77  37  24 CALM      30.33S
NEWCASTLE      FAIR      79  32  18 W5        30.33S

$$
WYZ014>020-022>026-101>103-301800-
CENTRAL WYOMING

CITY           SKY/WX    TMP DP  RH WIND       PRES   REMARKS
BIG PINEY      FAIR      67  27  22 VRB5      30.50F
PINEDALE       FAIR      70  30  23 E6        30.51S
DUBOIS         FAIR      70  27  19 SE3       30.50S
LANDER         FAIR      75  30  19 VRB3      30.40S
RIVERTON       FAIR      74  34  23 VRB3      30.41F
CASPER         FAIR      75  37  25 CALM      30.39F
DOUGLAS        FAIR      77  44  30 NW6       30.37F

$$
WYZ021-027>030-104>119-301800-
SOUTHERN WYOMING

CITY           SKY/WX    TMP DP  RH WIND       PRES   REMARKS
EVANSTON       FAIR      70  28  21 VRB3      30.50F
KEMMERER       FAIR      70  27  19 S3        30.52S
FORT BRIDGER   FAIR      71  30  21 CALM      30.53S
ROCK SPRINGS   FAIR      71  30  21 CALM      30.48S
DIXON          FAIR      75  24  14 W3        30.46F
RAWLINS        FAIR      74  21  13 CALM      30.47F
SARATOGA       FAIR      77  19  11 CALM      30.49S
LARAMIE        FAIR      75  21  13 S3        30.48F
CHEYENNE       FAIR      76  45  33 N13       30.42R
TORRINGTON     FAIR      77  51  40 VRB6      30.31S
PINE BLUFFS    FAIR      79  48  34 NE9       30.36S

$$



USA.gov is the U.S. government's official web portal to all federal, state and local government web resources and services.